Showing default

ICEYE-X7, 46496

Orbit data source: Space-Track

ICEYE-X7, 46496 is a payload satellite owned by ICEYE (FI) in SSO that was launched on Mon, 28 Sep 2020 UTC via a SOYUZ-2-1B launch vehicle from the Plesetsk Missile And Space Complex (PKMTR). Payloads include a variety of satellites, spacecraft, and rockets equipped with specific instruments for various scientific and technological missions. These include communications satellites like Starlink; space stations such as the ISS; scientific satellites like the Hubble; Earth observation satellites from companies like Planet Labs, Umbra, and HawkEye 360; GPS; miniature CubeSats for education and research; and military/defense satellites.

Loading next visibility...
ICEYE-X7 details
Identifier
46496, 2020-068L
Orbit
SSO
Last TLE update4 hours ago
Origin
Flag of FIICEYE (FI / FIN)
ManufacturerICEYE
MissionOperational Commercial Radar Imaging
Bus & MotorICEYE, Unknown motor
Mass80 kg wet, 80 kg dry
Launch date (UTC)
2020-09-28 (4 years ago)
Launch vehicle
SOYUZ-2-1B
Launch site
Plesetsk Missile And Space Complex (PKMTR)
Object type
Payload
Rocket body
Debris
Shape & HBRBox + 1 Pan, 3.25 m
Radar Cross Section1.837 m², Medium (>0.1 m² and < 1m²)

Expand to show TLE details & history

TLE from 4 hours ago
0 ICEYE-X7
1 46496U 20068L   25045.49159254  .00015943  00000-0  79415-3 0  9991
2 46496  97.6970 351.9279 0008643 221.2073 138.8509 15.17629882240473
Epoch: 2025-02-14T11:47Z
Definitive object data (Epoch: 2025-02-14T11:47:53.595Z)
Latitude0.00004°
Longitude30.20199°
Altitude520.573 km
Speed7.601 km/s
True Right ascension23h 27m 42s
True Declination0° 00' 00"
Sunlit
Object was in daylight at TLE epoch
Visualization TLE readout
Latitude-3.29355°
Longitude-150.07307°
Altitude511.824 km
Speed7.61 km/s
Apparent Right ascension09h 25m 31s
Apparent Declination-25° 24' 06"
Sunlit
Object is in full shadow
Visualization observer readout
Local Sidereal Time18:25:17
Azimuth277.169° WNW
Elevation-49.875°
Doppler factor1
Orbital elements
Apogee altitude515.941 km
Perigee altitude504.034 km
Semi-major axis6,888.125 km
Eccentricity0.0008643
Inclination97.697°
RAAN351.9279°
Arg. of periapsis221.2073°
True anomaly138.91602°
Mean anomaly138.8509°
Eccentric anomaly138.88346°
Mean motion3.79657 °/min
BSTAR0.00079415
Orbital period94.82 mins
Loading maneuver chart data...
Loading historical data...
Loading historical data...
Loading historical data...
Loading historical data...
Loading historical data...
Loading historical data...
Loading historical data...

ICEYE-X7 Visibility forecast

Observer location: undefined°, undefined

Span
Click to sort rows by Start time (UTC) header in descending order
Start Az.
Max El. time (UTC)
Max El. Az.
Max El.
End time (UTC)
End Az.
5 mins2025-02-14 19:51:05.644Z132.587° SE2025-02-14 19:54:05.644Z54.939° ENE29.63°2025-02-14 19:56:05.644Z13.041° NNE
5 mins2025-02-15 08:57:05.644Z30.841° NE2025-02-15 08:59:05.644Z94.967° ESE38.932°2025-02-15 09:02:05.644Z175.771° S
|